Location: Sungai Bunut
(2.6333°N, 113.7333°E)
Time: 15:14:55
(UTC+00:00)

Altair - Pass Details

Date: 08 December 2023
Orbit: 1501 x 1682 km, 47.2° (Epoch: 24 February)

Event Time Altitude Azimuth Distance (km) Brightness Sun altitude
Rises 10:32:47 0° 283° (WNW) 4,633 11.0 -4.7°
Reaches altitude 10° 10:37:14 10° 265° (W) 3,668 11.0 -5.7°
Maximum altitude 10:42:43 17° 227° (SW) 3,167 10.4 -7.0°
Drops below altitude 10° 10:48:20 10° 190° (S) 3,737 10.0 -8.3°
Sets 10:53:00 0° 171° (S) 4,758 10.3 -9.4°
